Flag for Uruguay Weather past 2 weeks in Montevideo, Uruguay

Now
54 °F

Clear.


Feels Like: 51 °F
Forecast: 57 / 71 °F
Wind: 9 mph from Northeast

Location: Carrasco

Current Time: Jul 28, 2015 at 5:46:27 AM

Latest Report: Jul 28, 2015 at 5:00 AM


Visibility: 10 mi

Pressure: 29.89 "Hg

Humidity: 94%

Dew point: 52 °F

Location of MontevideoLocation

Historic Weather in Montevideo — Graph

°F

Montevideo temperature yesterday

Maximum temperature yesterday: 70 °F (at 2:00 PM)
Minimum temperature yesterday: 50 °F (at 7:00 AM)
Average temperature yesterday: 59 °F

Past Weeks' High & Low Weather Summary

 TemperatureHumidityPressure
High72 °F (Jul 25, 3:00 PM)100% (Jul 13, 4:00 AM)30.36 "Hg (Jul 13, 4:00 AM)
Low34 °F (Jul 15, 6:00 AM)27% (Jul 15, 4:00 PM)29.53 "Hg (Jul 13, 4:00 AM)
Average51 °F75%30.14 "Hg
* Reported Jul 13 4:00 AM — Jul 28 4:00 AM, Montevideo, Weather by CustomWeather, © 2015

Note: Actual official high and low records may vary slightly from our data, if they occured in-between our weather recording intervals... More about our weather records

Advertising

Montevideo weather history for previous 24 hours

 ConditionsComfort  
Time TempWeatherWind HumidityBarometerVisibility
4:00 AM
Tue, Jul 28
54 °FClear.10 mph94%29.92 "Hg10 mi
3:00 AM54 °FClear.10 mph94%29.92 "Hg10 mi
2:00 AM54 °FClear.7 mph94%29.92 "Hg10 mi
1:40 AM57 °FClear.10 mph82%29.92 "Hg10 mi
11:00 PM
Mon, Jul 27
57 °FClear.7 mph82%29.92 "Hg10 mi
10:00 PM57 °FClear.6 mph82%29.92 "Hg10 mi
9:00 PM59 °FClear.8 mph72%29.92 "Hg10 mi
8:00 PM59 °FClear.6 mph72%29.92 "Hg10 mi
7:00 PM63 °FClear.8 mph59%29.92 "Hg10 mi
6:00 PM66 °FClear.7 mph52%29.92 "Hg10 mi
5:00 PM68 °FClear.9 mph49%29.92 "Hg10 mi
4:00 PM70 °FSunny.13 mph46%29.95 "Hg10 mi
3:00 PM70 °FSunny.14 mph50%29.98 "Hg10 mi
2:00 PM70 °FSunny.13 mph53%29.98 "Hg10 mi
1:00 PM66 °FScattered clouds.17 mph64%30.01 "HgN/A
12:00 PM66 °FScattered clouds.9 mph64%30.07 "HgN/A
11:00 AM63 °FSunny.13 mph73%30.07 "Hg10 mi
10:00 AM59 °FSunny.7 mph82%30.07 "Hg10 mi
9:00 AM54 °FSunny.6 mph94%30.07 "Hg10 mi
8:00 AM50 °FSunny.7 mph100%30.07 "Hg10 mi
7:00 AM50 °FSunny.5 mph100%30.07 "Hg10 mi
6:00 AM52 °FClear.6 mph94%30.04 "Hg10 mi
5:00 AM54 °FClear.6 mph88%30.04 "Hg10 mi
Weather by CustomWeather, © 2015

See weather overviewHow to use our weather pages